Location: Banksville Park
(38.5557°N, 75.1182°W)
Time: 02:09:53
(UTC+00:00)

H-2A R/B - Pass Details

Date: 19 September 2020
Orbit: 734 x 836 km, 98.2° (Epoch: 30 October)

Event Time Altitude Azimuth Distance (km) Brightness Sun altitude
Rises 00:12:59 0° 168° (SSE) 3,150 4.9 -14.4°
Reaches altitude 10° 00:15:14 10° 169° (SSE) 2,236 4.2 -14.8°
Maximum altitude 00:20:09 83° 257° (WSW) 756 2.0 -15.7°
Drops below altitude 10° 00:25:12 10° 346° (NNW) 2,295 4.9 -16.7°
Sets 00:27:32 0° 347° (NNW) 3,239 5.7 -17.1°
